Location: Brunnen
(48.6541°N, 10.9920°E)
Time: 08:19:53
(UTC+00:00)

Cosmos 2369 Rocket - Pass Details

Date: 01 June 2020
Orbit: 830 x 851 km, 71.0° (Epoch: 14 July)

Event Time Altitude Azimuth Distance (km) Brightness Sun altitude
Exits shadow 20:07:22 - 141° (SE) 2,509 4.0 -7.8°
Reaches altitude 10° 20:07:34 10° 139° (SE) 2,461 3.9 -7.8°
Maximum altitude 20:11:11 18° 99° (E) 1,971 3.7 -8.2°
Drops below altitude 10° 20:14:49 10° 59° (ENE) 2,464 4.5 -8.6°
Sets 20:18:01 0° 41° (NE) 3,400 5.5 -9.0°
